Location: Hylvaty SDH
(49.9612°N, 16.4057°E)
Time: 20:04:00
(UTC+01:00)

Vanguard 1 Rocket - Pass Details

Date: 07 October 2020
Orbit: 656 x 4221 km, 34.3° (Epoch: 30 October)

Event Time Altitude Azimuth Distance (km) Brightness Sun altitude
Rises 17:15:05 0° 232° (SW) 4,182 12.5 9.2°
Reaches altitude 10° 17:17:40 10° 223° (SW) 3,542 11.8 8.8°
Maximum altitude 17:26:05 36° 160° (SSE) 3,010 10.1 7.5°
Drops below altitude 10° 17:40:52 10° 103° (ESE) 6,200 11.1 5.2°
Sets 17:47:18 0° 97° (E) 7,733 11.5 4.2°
